TimeEDT,TemperatureF,Dew PointF,Humidity,Sea Level PressureIn,VisibilityMPH,Wind Direction,Wind SpeedMPH,Gust SpeedMPH,PrecipitationIn,Events,Conditions,WindDirDegrees,DateUTC
12:53 AM,34.0,12.0,40,30.14,10.0,West,9.2,17.3,N/A,,Clear,280,2013-04-04 04:53:00
1:53 AM,34.0,12.0,40,30.16,10.0,West,9.2,-,N/A,,Clear,280,2013-04-04 05:53:00
2:53 AM,32.0,12.0,44,30.16,10.0,West,8.1,-,N/A,,Clear,270,2013-04-04 06:53:00
3:53 AM,30.0,12.0,47,30.17,10.0,West,3.5,-,N/A,,Clear,270,2013-04-04 07:53:00
4:53 AM,30.0,12.0,47,30.18,10.0,West,3.5,-,N/A,,Clear,270,2013-04-04 08:53:00
5:53 AM,28.0,12.9,53,30.20,10.0,WNW,4.6,-,N/A,,Clear,290,2013-04-04 09:53:00
6:53 AM,28.9,14.0,54,30.25,10.0,West,4.6,-,N/A,,Clear,270,2013-04-04 10:53:00
7:53 AM,33.1,14.0,46,30.26,10.0,West,8.1,-,N/A,,Clear,280,2013-04-04 11:53:00
8:53 AM,37.0,12.0,36,30.27,10.0,WNW,13.8,19.6,N/A,,Clear,290,2013-04-04 12:53:00
9:53 AM,41.0,9.0,27,30.25,10.0,WNW,11.5,-,N/A,,Clear,300,2013-04-04 13:53:00
10:53 AM,44.1,9.0,24,30.24,10.0,West,11.5,-,N/A,,Clear,280,2013-04-04 14:53:00
11:53 AM,46.0,9.0,22,30.21,10.0,West,10.4,-,N/A,,Clear,270,2013-04-04 15:53:00
12:53 PM,48.9,8.1,19,30.19,10.0,West,10.4,-,N/A,,Clear,270,2013-04-04 16:53:00
1:53 PM,51.1,10.0,19,30.16,10.0,WSW,10.4,-,N/A,,Clear,240,2013-04-04 17:53:00
2:53 PM,54.0,9.0,17,30.13,10.0,SW,10.4,-,N/A,,Partly Cloudy,230,2013-04-04 18:53:00
3:53 PM,55.0,10.9,17,30.10,10.0,WSW,17.3,20.7,N/A,,Partly Cloudy,240,2013-04-04 19:53:00
4:53 PM,48.9,25.0,39,30.07,10.0,SE,9.2,-,N/A,,Scattered Clouds,130,2013-04-04 20:53:00
5:53 PM,53.1,15.1,22,30.05,10.0,SW,9.2,-,N/A,,Scattered Clouds,220,2013-04-04 21:53:00
6:53 PM,52.0,12.9,21,30.04,10.0,SW,12.7,-,N/A,,Scattered Clouds,230,2013-04-04 22:53:00
7:53 PM,48.9,21.0,33,30.04,10.0,South,10.4,-,N/A,,Clear,190,2013-04-04 23:53:00
8:53 PM,46.0,21.9,39,30.06,10.0,South,8.1,-,N/A,,Clear,190,2013-04-05 00:53:00
9:53 PM,45.0,19.9,37,30.06,10.0,SSW,10.4,-,N/A,,Clear,200,2013-04-05 01:53:00
10:53 PM,43.0,21.0,42,30.04,10.0,SW,8.1,-,N/A,,Clear,220,2013-04-05 02:53:00
11:53 PM,42.1,21.9,45,30.02,10.0,SSW,16.1,21.9,N/A,,Clear,210,2013-04-05 03:53:00